Preview of NWS' New Version of Forecast
This preview is not operational and should not be used for support decisions.

Regional Weather Roundup (RWR)

Issued by National Weather Service (NWS)

                            
000
ASUS43 KBIS 241502
RWRND 

NORTH DAKOTA REGIONAL WEATHER ROUNDUP
NATIONAL WEATHER SERVICE BISMARCK ND
1000 AM CDT WED APR 24 2019

NOTE: "FAIR" INDICATES FEW OR NO CLOUDS BELOW 12,000 FEET WITH NO
SIGNIFICANT WEATHER AND/OR OBSTRUCTIONS TO VISIBILITY.


NDZ001>003-009>011-017-241600-
NORTHWEST NORTH DAKOTA
  
CITY           SKY/WX    TMP DP  RH WIND       PRES   REMARKS
WILLISTON      FAIR      56  45  66 CALM      29.85S                  
MINOT          FAIR      60  41  49 NW15      29.78S                  
MINOT AFB      FAIR      57  42  57 NW14      29.77S                  
$$
 
NDZ018>021-031>035-040>046-241600-
SOUTHWEST NORTH DAKOTA
  
CITY           SKY/WX    TMP DP  RH WIND       PRES   REMARKS
BISMARCK       FAIR      60  41  49 NW6       29.79S                  
DICKINSON      FAIR      59  38  45 NW13      29.82S                  
GARRISON         N/A     57  41  55 N8        29.79S                  
HETTINGER ARPT FAIR      61  42  49 NW15      29.86S                  
$$
 
NDZ004>008-012>016-024-026-027-054-241600-
NORTHEAST NORTH DAKOTA
  
CITY           SKY/WX    TMP DP  RH WIND       PRES   REMARKS
GRAND FORKS    FAIR      62  37  39 N9        29.67F                  
GRND FRKS AFB  MOSUNNY   61  36  39 NW10      29.71F                  
DEVILS LAKE    FAIR      57  40  52 NW15      29.74R                  
$$
 
NDZ022-023-025-028>030-036>039-047>053-241600-
SOUTHEAST NORTH DAKOTA
  
CITY           SKY/WX    TMP DP  RH WIND       PRES   REMARKS
FARGO          FAIR      62  45  53 W10       29.70F                  
JAMESTOWN      FAIR      60  41  49 NW8       29.73S                  
$$